Espaço - Ciências - Fenômenos Naturais
Meteógrafos Informações Meteorológicas em tempo real

Aeroporto da Pampulha

Histórico do Tempo
Temperatura atual: 13 graus 55 F    Umidade relativa: 93 %
Velocidade do vento: 03 nós 5 Km/h    Direção: 100 graus E
Ajuste do altímetro ..: 1019 HPA
Visibilidade: Ótima    Tempo presente: Céu Limpo

Observação

Data Hora BRTTempo°CUmidadePressãoVentoVisib.
26/05 - 07:56   Céu Limpo 13° 93% 1019 Leste/5 km/h OK
26/05 - 06:56   Céu Limpo 13° 93% 1019 Norte/0 km/h OK
26/05 - 05:56   Céu Limpo 13° 93% 1018 Norte/0 km/h OK
26/05 - 04:56   Céu Limpo 13° 93% 1018 Norte/0 km/h OK
26/05 - 03:56   Céu Limpo 15° 87% 1018 Norte/0 km/h OK
26/05 - 02:56   Céu Limpo 16° 87% 1018 Norte/0 km/h OK
26/05 - 01:56   Poucas nuvens esparsas 16° 93% 1019 Norte/0 km/h OK
26/05 - 00:56   Poucas nuvens esparsas 18° 82% 1019 Norte/0 km/h OK
25/05 - 23:56   Poucas nuvens esparsas 18° 88% 1019 Norte/0 km/h OK
25/05 - 22:56   Céu Limpo 19° 82% 1019 Norte/0 km/h OK
25/05 - 21:56   Céu Limpo 19° 77% 1018 Oeste/5 km/h OK
25/05 - 20:56   Céu Limpo 20° 73% 1018 Oeste-sudoeste/5 km/h OK
25/05 - 19:56   Céu Limpo 21° 68% 1017 Norte/0 km/h OK
25/05 - 18:56   Céu Limpo 23° 57% 1016 Oeste/7 km/h OK
25/05 - 17:56   Céu Limpo 25° 47% 1016 Oeste/14 km/h OK
25/05 - 16:56   Poucas nuvens esparsas 26° 47% 1016 Oeste/16 km/h OK
25/05 - 15:56   Poucas nuvens esparsas 27° 47% 1016 Oeste/12 km/h OK
25/05 - 14:56   Poucas nuvens esparsas 27° 47% 1016 Oeste/12 km/h OK
25/05 - 13:56   Poucas nuvens esparsas 26° 50% 1017 Oeste/18 km/h OK
25/05 - 12:56   Poucas nuvens esparsas 25° 57% 1018 Oeste/16 km/h OK
25/05 - 11:56   Não Disponível 24° 61% 1018 Oeste/14 km/h OK
25/05 - 10:56   Não Disponível 23° 60% 1019 Oeste/14 km/h OK
25/05 - 09:56   Céu Limpo 22° 68% 1018 Oeste/12 km/h OK
25/05 - 08:56   Céu Limpo 20° 82% 1018 Oeste/7 km/h OK


Apolo11.com - Todos os direitos reservados - 2000 - 2019
Política de Privacidade   |     Termo de Uso e Licenciamento   |  -   Entre em Contato

"Deixe que me odeiem, de maneira que me temam!" - Calígula